Location: Bergfeld
(52.0500°N, 11.7833°E)
Time: 08:16:27
(UTC+00:00)

Cosmos 1151 Rocket - Pass Details

Date: 17 February 2020
Orbit: 592 x 616 km, 82.5° (Epoch: 30 March)

Event Time Altitude Azimuth Distance (km) Brightness Sun altitude
Rises 05:28:28 0° 175° (S) 2,839 6.6 -9.3°
Reaches altitude 10° 05:30:42 10° 170° (S) 1,945 5.9 -9.0°
Maximum altitude 05:34:53 52° 95° (E) 764 4.1 -8.4°
Drops below altitude 10° 05:39:07 10° 19° (NNE) 1,976 5.8 -7.7°
Sets 05:41:23 0° 15° (NNE) 2,889 6.6 -7.4°
